Location: Dittelspoint
(48.7198°N, 10.7214°E)
Time: 18:14:46
(UTC+00:00)

Cosmos 1570 Rocket - Pass Details

Date: 09 April 2020
Orbit: 763 x 788 km, 74.1° (Epoch: 24 May)

Event Time Altitude Azimuth Distance (km) Brightness Sun altitude
Rises 20:45:56 0° 335° (NNW) 3,292 8.5 -24.2°
Reaches altitude 10° 20:48:21 10° 333° (NNW) 2,358 7.5 -24.4°
Maximum altitude 20:53:40 68° 251° (WSW) 847 4.2 -25.0°
Enters shadow 20:54:30 58° 202° (SSW) 915 4.1 -25.1°
